Regional Weather Roundup
Issued by NWS Grand Forks, ND

Home | Current Version | Previous Version | Text Only | Print | Product List | Glossary Off
Versions: 1 2 3 4 5 6 7 8 9 10 11 12 13 14 15 16 17 18 19 20 21 22 23 24 25 26 27 28 29 30 31 32 33 34 35 36 37 38 39 40 41 42 43 44 45 46 47 48 49 50

000
ASUS43 KFGF 210710
RWRFGF
PRAIRIE TO PINES  WEATHER ROUNDUP
NATIONAL WEATHER SERVICE EASTERN NORTH DAKOTA/GRAND FORKS ND
200 AM CDT SUN SEP 21 2014

 **SATELLITE DATA USED TO AUGMENT SKY COVER AT AUTOMATED STATIONS**
 *****  WEATHER ACROSS EASTERN NORTH DAKOTA  *****

CITY           SKY/WX    TMP DP  RH WIND       PRES   REMARKS
GRAND FORKS    CLEAR     51  48  89 NW9       30.01R
GRAND FRKS AFB CLEAR     52  51  97 N9        30.02R
GRAND FRKS NWS   N/A     52 N/A N/A NW5         N/A
DEVILS LAKE    CLEAR     52  43  71 NW8       30.06R
FARGO          PTCLDY    54  49  83 NW9       30.01R
WAHPETON ARPT  MOSUNNY   54  46  76 NW10      30.02R
$$

 ***** WEATHER ACROSS CENTRAL AND WESTERN NORTH DAKOTA  *****

CITY           SKY/WX    TMP DP  RH WIND       PRES   REMARKS
BISMARCK       CLEAR     51  42  71 W6        30.16R
MINOT          CLEAR     52  40  63 W12       30.14R
JAMESTOWN      CLOUDY    56  45  66 NW13      30.07R
MINOT AFB      CLEAR     49  44  83 NW9       30.14R
GARRISON         N/A     49  41  74 NW9       30.16R
WILLISTON      CLEAR     52  37  56 NW12      30.21R
DICKINSON      CLEAR     44  35  70 W7        30.21S
HETTINGER      CLEAR     45  34  65 NW6       30.25R
$$

 *****  OTHER AIRPORT OBSERVATIONS IN OUR AREA  *****

CITY           SKY/WX    TMP DP  RH WIND       PRES   REMARKS
WALHALLA         N/A     55  55 100 NW14G20   30.04R
GRAFTON AIRPOR FAIR      52  50  93 NW8       30.01R
VALLEY CITY AR FAIR      50  50 100 NW7       30.06R
CANDO          PTSUNNY   48  46  93 NW7       30.09R
CAVALIER APRT  FAIR      54  50  87 NW10      30.02R
GWINNER        SUNNY     57  45  62 NW13      30.06R
SHEYENNE NWR     N/A     54  48  79 NW3       29.95S
ROLLA          CLOUDY    50  48  93 NW10      30.10R
 ***** THE ABOVE OBSERVATIONS ARE NON NWS ARE NOT QUALITY
       CONTROLLED AND MAY MIS-REPORT RAIN FOR SNOW...
$$

  *****  WEATHER ACROSS NORTHERN MINNESOTA  *****

CITY           SKY/WX    TMP DP  RH WIND       PRES   REMARKS
FLAG ISLAND    CLOUDY    52  48  87 W7        29.93R
WARROAD        DRIZZLE   50  46  87 W5        29.96R
ROSEAU         CLOUDY    52  46  82 W8        29.96R
HALLOCK        MOCLDY    52  48  87 N7        29.99S
THF RVR FALLS  CLOUDY    52  50  93 NW9       29.99R
BAUDETTE       CLOUDY    50  48  93 W5        29.94R
WASKISH        LGT RAIN  50  48  93 NW8       29.95R
CROOKSTON      MOCLDY    52  50  93 NW7       30.01R
STEPHEN NDAWN    N/A     50  50 100 N6          N/A
GREENBUSH NDAW   N/A     52  50  93 NW6         N/A
$$
  *****  WEATHER ACROSS CENTRAL AND WEST MINNESOTA  *****

CITY           SKY/WX    TMP DP  RH WIND       PRES   REMARKS
FOSSTON        PTCLDY    48  48 100 NW3       29.98R
BEMIDJI        CLOUDY    49  47  95 NW7       29.96R
PARK RAPIDS    MOCLDY    51  48  89 N10       29.95R
ELBOW LAKE     CLOUDY    53  49  87 NW13      29.99R
WADENA         CLEAR     50  48  93 NW8       29.95R
DETROIT LAKES  CLOUDY    52  50  93 NW12      30.00R
MOORHEAD       CLEAR     54  52  94 NW6       30.02R
FERGUS FALLS   CLOUDY    52  48  87 NW9       30.01R
MORRIS MN      CLEAR     52  48  87 NW10      29.98R
STAPLES        FAIR      48  46  93 NW8       29.94R
$$
  *****  WEATHER ELSEWHERE ACROSS MINNESOTA  *****

CITY           SKY/WX    TMP DP  RH WIND       PRES   REMARKS
DULUTH         CLOUDY    52  49  89 NW10      29.79R
INTRNTL FALLS  LGT RAIN  49  48  97 NW9       29.90R
ELY            CLOUDY    52  50  93 N3        29.82R
CLOQUET        RAIN      52  48  87 NW13      29.81R
WHEATON        CLEAR     52  46  82 W8        30.03R
BRAINERD       CLOUDY    51  46  83 NW15      29.92R
HIBBING        LGT RAIN  52  49  89 N17G25    29.85R
ALEXANDRIA     CLEAR     53  49  86 NW12      29.98R
SAINT CLOUD    CLEAR     55  47  74 NW13      29.90R
MINNEAPOLIS    PTCLDY    55  50  83 NW12      29.87R
$$

  *****  WEATHER ACROSS SOUTH DAKOTA  *****

CITY           SKY/WX    TMP DP  RH WIND       PRES   REMARKS
SIOUX FALLS    CLEAR     56  44  64 W10       30.07R
BROOKINGS      NOT AVBL
WATERTOWN      CLEAR     56  43  61 NW16      30.05R
HURON          CLEAR     51  40  65 NW9       30.10R
SISSETON         N/A     56  46  69 N14       30.02R
ABERDEEN       CLEAR     56  42  59 NW12      30.09R
MITCHELL       CLEAR     55  42  61 NW9       30.12R
PIERRE         CLEAR     49  44  83 W10       30.17R
MOBRIDGE       CLEAR     50  43  77 N9        30.14R
RAPID CITY     CLEAR     51  37  58 NW10      30.29R
$$

  *****  SOME WEATHER IN NEARBY STATES *****

CITY           SKY/WX    TMP DP  RH WIND       PRES   REMARKS
GLASGOW MT     CLEAR     50  36  58 NW6       30.25S
GREAT FALLS MT CLEAR     54  42  64 SE7       30.26S
CHEYENNE WY    CLOUDY    56  38  50 CALM      30.41R
SCOTTSBLUFF NE PTCLDY    53  43  68 CALM      30.33R
OMAHA NE       CLEAR     61  54  77 CALM      30.08R
DES MOINES IA  CLEAR     59  51  75 W6        30.00S
DAVENPORT IA   CLEAR     59  52  77 NW13      29.90R
CHICAGO IL     MOCLDY    65  62  90 W10       29.72R
EAU CLAIRE WI  CLOUDY    56  48  74 W15G23    29.75S
LA CROSSE WI   CLEAR     61  50  67 NW10      29.79F
$$

  *****  SOME NATIONAL WEATHER *****

CITY           SKY/WX    TMP DP  RH WIND       PRES   REMARKS
LA GUARDIA NY  RAIN      67  65  93 CALM      29.98F FOG
RALEIGH NC     MOCLDY    65  61  87 NE5       29.95F
ATLANTA GA     CLEAR     67  60  78 NW3       30.03F
NEW ORLEANS LA PTCLDY    78  68  71 NE6       29.97S
OKLAHOMA CITY  PTCLDY    71  66  84 SE6       30.06R
ALBUQUERQUE NM MOCLDY    72  55  55 SE9       30.24R
SALT LAKE CITY MOCLDY    70  46  42 E3        30.08S
LOS ANGELES CA PTCLDY    68  64  87 W9        29.94S
BOISE ID       PTCLDY    67  44  43 SW5       30.01S
SEATTLE WA     CLEAR     60  55  83 NW3       29.90S
$$

*** WEATHER ACROSS MANITOBA...SASKATCHEWAN AND ONTARIO ***
                ***ONTARIO***

CITY           SKY/WX    TMP DP  RH WIND       PRES   REMARKS
GERALDTON      CLOUDY    41  39  93 N5        29.82S
THUNDER BAY    NOT AVBL
SIOUX LOOKOUT  PTCLDY    43  41  93 N5        29.91R
TORONTO        MOCLDY    66  61  82 W16       29.70F
BIG TROUT LK   CLOUDY    39  37  93 N6        29.94R FOG
PICKLE LAKE    NOT AVBL
DRYDEN         MOCLDY    46  43  87 NE7       29.92R
KENORA         MOCLDY    50  48  93 NW8       29.94R FOG
$$
                *** MANITOBA***

CITY           SKY/WX    TMP DP  RH WIND       PRES   REMARKS
BRANDON        MOCLDY    50  48  93 NW9       30.09R
DAUPHIN        CLOUDY    54  50  87 W5        30.07R
ISLAND LAKE    PTCLDY    45  39  81 CALM      30.00R
PILOT MOUND    NOT AVBL
THE PAS        CLOUDY    52  48  87 N9        30.06R
THOMPSON       CLEAR     28  28 100 W2        30.02R
WINNIPEG       PTCLDY    48  48 100 NW8       30.01R
LYNN LAKE      LGT RAIN  46  45  93 SW7       29.98S FOG
CHURCHILL      CLEAR     32  32 100 W6        29.98S
GILLAM         CLEAR     28  28 100 S3        30.00R
$$
                ***SASKATCHEWAN***

CITY           SKY/WX    TMP DP  RH WIND       PRES   REMARKS
ESTEVAN        CLEAR     45  41  87 NW6       30.18R
KINDERSLEY     NOT AVBL
LLOYDMINSTER   CLEAR     48  37  66 SW8       30.12S
PRINCE ALBERT  FOG       37  36  93 CALM      30.12S VSB 1
REGINA         CLEAR     45  41  87 W5        30.18R
YORKTON        CLEAR     46  43  87 W9        30.12R
N. BATTLEFORD  CLEAR     43  36  75 S3        30.16R
LA RONGE       CLEAR     45  43  93 SW6       30.06S
SASKATOON      CLEAR     43  37  81 W8        30.17R
SWIFT CURRENT  CLEAR     46  36  66 W10       30.23S
$$
NOTE: THESE ARE AUTOMATED STATIONS WITH LIMITED QUALITY CONTROL
      "FAIR" INDICATES FEW OR NO CLOUDS BELOW 12,000 FEET WITH NO
      SIGNIFICANT WEATHER AND/OR OBSTRUCTIONS TO VISIBILITY.
      SKY/WX - SKY CONDITION AND SIGNIFICANT WEATHER.
      TMP - AIR TEMPERATURE.    DP   - DEWPOINT TEMPERATURE.
      RH  - RELATIVE HUMIDITY.  PRES - PRESSURE.
      HX  - HEAT INDEX.         WCI  - WIND CHILL INDEX.
$



USA.gov is the U.S. government's official web portal to all federal, state and local government web resources and services.